Location: *
(46.3500°N, 10.9000°E)
Time: 22:28:15
(UTC+00:00)

A-11 Canister half - Pass Details

Date: 28 April 2021
Orbit: 1526 x 1682 km, 47.3° (Epoch: 13 May)

Event Time Altitude Azimuth Distance (km) Brightness Sun altitude
Rises 14:31:50 0° 262° (W) 4,851 12.5 37.9°
Reaches altitude 10° 14:34:56 10° 263° (W) 3,884 12.3 37.4°
Maximum altitude 14:44:59 86° 353° (N) 1,680 9.9 35.7°
Drops below altitude 10° 14:55:13 10° 84° (E) 3,948 10.7 34.0°
Sets 14:58:23 0° 85° (E) 4,934 11.1 33.5°
